Weather Roundup
Issued by NWS Chicago, IL

Home | Current Version | Previous Version | Text Only | Print | Product List | Glossary Off
Versions: 1 2 3 4 5 6 7 8 9 10 11 12 13 14 15 16 17 18 19 20 21 22 23 24 25 26 27 28 29 30 31 32 33 34 35 36 37 38 39 40 41 42 43 44 45 46 47 48 49 50

000
NZUS59 KLOT 252003
HRRLOT

CHICAGO AREA WEATHER ROUNDUP
NATIONAL WEATHER SERVICE CHICAGO/ROMEOVILLE IL
300 PM CDT THU MAY 25 2017

NOTE: "FAIR" INDICATES FEW OR NO CLOUDS BELOW 12,000 FEET WITH NO
SIGNIFICANT WEATHER AND/OR OBSTRUCTIONS TO VISIBILITY.

* THESE STATIONS ARE NOT UNDER NWS QUALITY CONTROL. THEY ALSO MAY NOT
  REPORT WEATHER SUCH AS PRECIPITATION OR FOG.

ILZ005-006-012>014-019>023-252100-
NORTHEAST ILLINOIS

CITY           SKY/WX    TMP DP  RH WIND       PRES   REMARKS
OHARE          CLOUDY    67  54  63 N8        29.64R
MIDWAY         PTSUNNY   68  54  60 N9        29.64R
AURORA         CLOUDY    66  56  70 NW7       29.66F
LANSING*       PTSUNNY   65  56  74 NE12      29.65R
JOLIET*        CLOUDY    67  56  70 NW5       29.65F
WAUKEGAN       MOSUNNY   66  54  65 N8        29.64R
DUPAGE AIRPORT CLOUDY    66  56  70 NW9       29.64S
WHEELING       CLOUDY    66  55  67 NE6       29.65S
KANKAKEE*      CLOUDY    67  55  65 NW8       29.66S
MORRIS*        CLOUDY    65  55  69 NW8       29.65S
LEWIS AIRPORT* CLOUDY    66  58  74 N7        29.65F
NORTHERLY ISL    N/A     62  52  69 NW10        N/A
$$

WIZ051-052-058>065-066-070>072-252100-
SOUTHEAST WISCONSIN

CITY           SKY/WX    TMP DP  RH WIND       PRES   REMARKS
MILWAUKEE      MOSUNNY   61  52  72 N15G23    29.66R
KENOSHA*       MOSUNNY   68  55  63 N12G23    29.65R
RACINE*        SUNNY     61  51  70 N17G23    29.67R
WAUKESHA       PTSUNNY   64  48  55 NE10G16   29.66S
$$

INZ001>003-010>013-019-020-252100-
NORTHWEST INDIANA

CITY           SKY/WX    TMP DP  RH WIND       PRES   REMARKS
GARY*          PTSUNNY   64  52  63 NW12G23   29.66R
MICHIGAN CITY* NOT AVBL
RENSSELAER*    NOT AVBL
VALPARAISO     CLOUDY    61  53  75 N13       29.65R
$$

LMZ740>746-252100-
SOUTHERN LAKE MICHIGAN

STATION/POSITION TIME  SKY/WX   TEMP WIND        PRES    VSBY
                                AIR  DIR/SP/G
                 (UTC)          (F)  (DEG/KT/KT) (MB)    (MI)
HARRISON CRIB    1940            53  340/ 12/ 13   N/A
BURNHAM HARBOR   2000            62  360/ 10/ 16   N/A
CALUMET HARBOR   1930            57  340/ 13/ 18 1003.9R
BURNS HARBOR     1940            51  330/  7/ 10 1005.1R
MICHIGAN CITY    1940            49  290/  7/  8   N/A
$$

ABBREVIATIONS USED IN REMARKS
   TC - TEMPERATURE IN CELSIUS
  WCI - WIND CHILL INDEX
   HX - HEAT INDEX
  VSB - VISIBILITY
$$




USA.gov is the U.S. government's official web portal to all federal, state and local government web resources and services.